When you browse on this site, cookies collect data to enhance your experience and personalize the content and advertising you see.
Visit our Privacy Policy to learn more. By continuing to use the site, you agree to this use of cookies and data.
  • In Hungary
  • List of Countries
  • For 7 days
  • Water Temperature
  • Satellite Maps
  • Weather Map
  • News
  • Weather Widgets
  • user-avatar
    Login

    Hourly Weather Łomża

    Today, 19 June, Wednesday

    Time Temperature Precipitation Wind Pressure Humidity
    00:00 +17°C° 0 mm 2 mps 753 mmHg 80%
    01:00 +16°C° 0 mm 2 mps 752 mmHg 82%
    02:00 +16°C° 0 mm 2 mps 752 mmHg 83%
    03:00 +16°C° 0 mm 2 mps 752 mmHg 84%
    04:00 +16°C° 0 mm 2 mps 752 mmHg 85%
    05:00 +17°C° 0 mm 3 mps 752 mmHg 82%
    06:00 +19°C° 0 mm 3 mps 752 mmHg 80%
    07:00 +21°C° 0 mm 3 mps 752 mmHg 77%
    08:00 +22°C° 0.1 mm 3 mps 752 mmHg 74%
    09:00 +23°C° 0.1 mm 4 mps 751 mmHg 72%
    10:00 +26°C° 0.1 mm 4 mps 751 mmHg 69%
    11:00 +26°C° 0.6 mm 4 mps 751 mmHg 69%
    12:00 +26°C° 0.6 mm 4 mps 750 mmHg 69%
    13:00 +26°C° 0.6 mm 5 mps 750 mmHg 69%
    14:00 +27°C° 0.2 mm 5 mps 750 mmHg 67%
    15:00 +27°C° 0.2 mm 5 mps 749 mmHg 66%
    16:00 +27°C° 0.2 mm 5 mps 749 mmHg 64%
    17:00 +25°C° 1 mm 4 mps 749 mmHg 71%
    18:00 +23°C° 1 mm 4 mps 748 mmHg 78%
    19:00 +22°C° 1 mm 4 mps 748 mmHg 85%
    20:00 +21°C° 0.2 mm 4 mps 748 mmHg 88%
    21:00 +20°C° 0.2 mm 3 mps 748 mmHg 91%
    22:00 +20°C° 0.2 mm 3 mps 748 mmHg 94%
    23:00 +19°C° 0 mm 3 mps 748 mmHg 95%

    Tomorrow, 20 June, Thursday

    Time Temperature Precipitation Wind Pressure Humidity
    00:00 +19°C° 0 mm 3 mps 748 mmHg 95%
    01:00 +19°C° 0 mm 3 mps 748 mmHg 96%
    02:00 +19°C° 0.2 mm 3 mps 747 mmHg 96%
    03:00 +19°C° 0.2 mm 2 mps 747 mmHg 96%
    04:00 +19°C° 0.2 mm 2 mps 747 mmHg 96%
    05:00 +20°C° 0.1 mm 2 mps 747 mmHg 93%
    06:00 +21°C° 0.1 mm 2 mps 747 mmHg 90%
    07:00 +22°C° 0.1 mm 3 mps 747 mmHg 87%
    08:00 +25°C° 1 mm 2 mps 747 mmHg 80%
    09:00 +26°C° 1 mm 2 mps 747 mmHg 72%
    10:00 +28°C° 1 mm 2 mps 747 mmHg 65%
    11:00 +28°C° 0 mm 2 mps 747 mmHg 61%
    12:00 +29°C° 0 mm 2 mps 747 mmHg 56%
    13:00 +30°C° 0 mm 2 mps 746 mmHg 52%
    14:00 +30°C° 0 mm 2 mps 746 mmHg 53%
    15:00 +30°C° 0 mm 2 mps 746 mmHg 53%
    16:00 +30°C° 0 mm 1 mps 746 mmHg 54%
    17:00 +29°C° 0 mm 1 mps 746 mmHg 59%
    18:00 +27°C° 0 mm 1 mps 746 mmHg 64%
    19:00 +24°C° 0 mm 0 mps 746 mmHg 69%
    20:00 +23°C° 0.1 mm 0 mps 746 mmHg 72%
    21:00 +22°C° 0.1 mm 0 mps 747 mmHg 75%
    22:00 +20°C° 0.1 mm 0 mps 747 mmHg 78%
    23:00 +22°C° 0.1 mm 1 mps 747 mmHg 80%

    Day after tomorrow, 21 June, Friday

    Time Temperature Precipitation Wind Pressure Humidity
    00:00 +22°C° 0.1 mm 1 mps 747 mmHg 83%
    01:00 +22°C° 0.1 mm 1 mps 747 mmHg 85%
    02:00 +22°C° 0.1 mm 1 mps 748 mmHg 86%
    03:00 +21°C° 0.1 mm 1 mps 748 mmHg 88%
    04:00 +21°C° 0.1 mm 1 mps 748 mmHg 89%
    05:00 +22°C° 0.1 mm 1 mps 748 mmHg 85%
    06:00 +24°C° 0.1 mm 1 mps 748 mmHg 81%
    07:00 +23°C° 0.1 mm 0 mps 748 mmHg 77%
    08:00 +24°C° 1 mm 0 mps 749 mmHg 72%
    09:00 +25°C° 1 mm 0 mps 749 mmHg 68%
    10:00 +28°C° 1 mm 1 mps 749 mmHg 63%
    11:00 +28°C° 0.1 mm 1 mps 749 mmHg 60%
    12:00 +29°C° 0.1 mm 1 mps 749 mmHg 58%
    13:00 +30°C° 0.1 mm 2 mps 749 mmHg 55%
    14:00 +28°C° 1.5 mm 2 mps 749 mmHg 64%
    15:00 +27°C° 1.5 mm 2 mps 749 mmHg 73%
    16:00 +25°C° 1.5 mm 2 mps 749 mmHg 82%
    17:00 +25°C° 1.1 mm 2 mps 749 mmHg 83%
    18:00 +24°C° 1.1 mm 2 mps 749 mmHg 85%
    19:00 +23°C° 1.1 mm 2 mps 749 mmHg 86%
    20:00 +21°C° 0.4 mm 2 mps 749 mmHg 88%
    21:00 +21°C° 0.4 mm 3 mps 749 mmHg 91%
    22:00 +20°C° 0.4 mm 3 mps 749 mmHg 93%
    23:00 +19°C° 0 mm 3 mps 750 mmHg 93%

    22 June, Saturday

    Time Temperature Precipitation Wind Pressure Humidity
    00:00 +19°C° 0 mm 3 mps 750 mmHg 92%
    01:00 +18°C° 0 mm 3 mps 750 mmHg 92%
    02:00 +18°C° 0.1 mm 3 mps 749 mmHg 94%
    03:00 +18°C° 0.1 mm 3 mps 750 mmHg 94%
    04:00 +18°C° 0.1 mm 4 mps 750 mmHg 94%
    05:00 +18°C° 0 mm 4 mps 750 mmHg 93%
    06:00 +18°C° 0 mm 4 mps 750 mmHg 92%
    07:00 +18°C° 0 mm 4 mps 751 mmHg 91%
    08:00 +19°C° 0 mm 4 mps 751 mmHg 89%
    09:00 +20°C° 0 mm 4 mps 751 mmHg 87%
    10:00 +21°C° 0 mm 4 mps 752 mmHg 84%
    11:00 +22°C° 0.1 mm 4 mps 752 mmHg 81%
    12:00 +22°C° 0.1 mm 4 mps 751 mmHg 78%
    13:00 +23°C° 0.1 mm 5 mps 751 mmHg 76%
    14:00 +23°C° 0.6 mm 5 mps 751 mmHg 77%
    15:00 +23°C° 0.6 mm 5 mps 751 mmHg 78%
    16:00 +23°C° 0.6 mm 5 mps 751 mmHg 79%
    17:00 +22°C° 0.4 mm 5 mps 751 mmHg 82%
    18:00 +21°C° 0.4 mm 5 mps 751 mmHg 85%
    19:00 +20°C° 0.4 mm 4 mps 751 mmHg 88%
    20:00 +19°C° 0 mm 5 mps 751 mmHg 88%
    21:00 +19°C° 0 mm 5 mps 752 mmHg 87%
    22:00 +17°C° 0 mm 5 mps 752 mmHg 86%
    23:00 +16°C° 0 mm 5 mps 751 mmHg 88%

    23 June, Sunday

    Time Temperature Precipitation Wind Pressure Humidity
    00:00 +16°C° 0 mm 5 mps 751 mmHg 89%
    01:00 +17°C° 0 mm 4 mps 751 mmHg 91%
    02:00 +17°C° 0.2 mm 4 mps 751 mmHg 92%
    03:00 +16°C° 0.2 mm 5 mps 751 mmHg 92%
    04:00 +17°C° 0.2 mm 5 mps 750 mmHg 93%
    05:00 +17°C° 0.7 mm 5 mps 750 mmHg 94%
    06:00 +16°C° 0.7 mm 5 mps 750 mmHg 95%
    07:00 +16°C° 0.7 mm 5 mps 750 mmHg 95%
    08:00 +16°C° 1.5 mm 5 mps 750 mmHg 96%
    09:00 +16°C° 1.5 mm 5 mps 749 mmHg 96%
    10:00 +16°C° 1.5 mm 5 mps 749 mmHg 97%
    11:00 +16°C° 2.2 mm 6 mps 749 mmHg 96%
    12:00 +16°C° 2.2 mm 6 mps 749 mmHg 96%
    13:00 +16°C° 2.2 mm 6 mps 749 mmHg 95%
    14:00 +16°C° 0.2 mm 6 mps 749 mmHg 95%
    15:00 +16°C° 0.2 mm 6 mps 748 mmHg 94%
    16:00 +16°C° 0.2 mm 6 mps 748 mmHg 94%
    17:00 +16°C° 0.1 mm 6 mps 749 mmHg 94%
    18:00 +16°C° 0.1 mm 7 mps 749 mmHg 94%
    19:00 +15°C° 0.1 mm 7 mps 749 mmHg 94%
    20:00 +15°C° 0.2 mm 7 mps 749 mmHg 94%
    21:00 +15°C° 0.2 mm 7 mps 750 mmHg 94%
    22:00 +15°C° 0.2 mm 7 mps 750 mmHg 94%
    23:00 +15°C° 0 mm 7 mps 750 mmHg 94%

    24 June, Monday

    Time Temperature Precipitation Wind Pressure Humidity
    00:00 +15°C° 0 mm 7 mps 751 mmHg 94%
    01:00 +14°C° 0 mm 6 mps 751 mmHg 93%
    02:00 +14°C° 0 mm 6 mps 751 mmHg 92%
    03:00 +14°C° 0 mm 6 mps 752 mmHg 91%
    04:00 +14°C° 0 mm 6 mps 752 mmHg 91%
    05:00 +14°C° 0 mm 6 mps 752 mmHg 89%
    06:00 +14°C° 0 mm 6 mps 753 mmHg 86%
    07:00 +14°C° 0 mm 6 mps 753 mmHg 84%
    08:00 +16°C° 0 mm 6 mps 754 mmHg 79%
    09:00 +17°C° 0 mm 6 mps 754 mmHg 73%
    10:00 +20°C° 0 mm 7 mps 754 mmHg 67%
    11:00 +21°C° 0 mm 6 mps 754 mmHg 64%
    12:00 +21°C° 0 mm 6 mps 755 mmHg 62%
    13:00 +22°C° 0 mm 6 mps 755 mmHg 59%
    14:00 +22°C° 0 mm 6 mps 755 mmHg 59%
    15:00 +22°C° 0 mm 6 mps 755 mmHg 60%
    16:00 +21°C° 0 mm 6 mps 755 mmHg 61%
    17:00 +20°C° 0 mm 5 mps 756 mmHg 66%
    18:00 +19°C° 0 mm 4 mps 756 mmHg 72%
    19:00 +17°C° 0 mm 4 mps 756 mmHg 77%
    20:00 +15°C° 0 mm 4 mps 756 mmHg 80%
    21:00 +14°C° 0 mm 3 mps 757 mmHg 83%
    22:00 +13°C° 0 mm 3 mps 757 mmHg 86%
    23:00 +12°C° 0 mm 3 mps 758 mmHg 87%
    Show more